Regional Weather Roundup
Issued by NWS Goodland, KS

Home | Current Version | Previous Version | Graphics & Text | Print | Product List | Glossary On
Versions: 1 2 3 4 5 6 7 8 9 10 11 12 13 14 15 16 17 18 19 20 21 22 23 24 25 26 27 28 29 30 31 32 33 34 35 36 37 38 39 40 41 42 43 44 45 46 47 48 49 50
000
ASUS43 KGLD 220808
RWRGLD

GOODLAND FORECAST AREA HOURLY WEATHER ROUNDUP
NATIONAL WEATHER SERVICE GOODLAND KS
200 AM MDT MON SEP 22 2014

...OFFICIAL OBSERVATIONS...

CITY           SKY/WX    TMP DP  RH WIND       PRES   REMARKS
GOODLAND KS    MOCLDY    56  42  59 S9        30.31F
HILL CITY KS   MOCLDY    55  45  68 CALM      30.30S
IMPERIAL NEB   CLOUDY    59  41  51 SE7       30.29F
MCCOOK NEB     MOCLDY    55  44  66 NE3       30.30S
AKRON CO       CLOUDY    60  40  47 S14       30.29F
BURLINGTON CO  MOCLDY    57  40  52 S14       30.32F
LIMON CO       PTCLDY    51  38  60 SE9       30.34F
$$

...UNOFFICIAL OBSERVATIONS...

CITY           SKY/WX    TMP DP  RH WIND       PRES   REMARKS
COLBY KS       CLOUDY    63  45  51 SE9       30.30F
GOVE KS          N/A     52  32  46 MISG        N/A
NORTON KS      PTCLDY    54  39  58 CALM      30.29S
SHARON SPRINGS   N/A     53  43  68 S7          N/A
WAKEENEY KS      N/A     58  38  46 MISG        N/A
TRENTON NEB      N/A     56  32  40 SE6         N/A
KIT CARSON CO    N/A     56  40  55 CALM        N/A
YUMA CO          N/A     60  42  51 SE5G12      N/A
$$


USA.gov is the U.S. government's official web portal to all federal, state and local government web resources and services.